Location: Bord�res
(43.2000°N, 0.2167°W)
Time: 13:18:18
(UTC+00:00)

Cosmos 2333 Rocket - Pass Details

Date: 03 March 2021
Orbit: 837 x 864 km, 70.8° (Epoch: 20 April)

Event Time Altitude Azimuth Distance (km) Brightness Sun altitude
Rises 20:29:07 0° 219° (SW) 3,387 5.6 -28.9°
Reaches altitude 10° 20:31:37 10° 224° (SW) 2,459 4.9 -29.3°
Maximum altitude 20:37:06 51° 300° (WNW) 1,062 2.9 -30.3°
Drops below altitude 10° 20:42:41 10° 16° (NNE) 2,492 4.7 -31.2°
Sets 20:45:14 0° 22° (NNE) 3,436 5.4 -31.6°
